User: anonymous   Login
Location: Unspecified
(0.0000°N, 0.0000°E)
Time: 12:50:02
(UTC+00:00)
Language:

YAOGAN 3 - Orbit

View from above orbital plane
View from above orbital plane
View from above satellite
View from above satellite

Ground track
Ground track

The orbit data is extracted from the following two-line orbital elements,

1 32289U 07055A   18201.15596967 -.00000173  00000-0 -15493-4 0  9990
2 32289  98.0056 207.3593 0001759  92.8120 267.3285 14.80904715577637
Epoch (UTC): 20 July 2018 03:44:35
Eccentricity: 0.0001759
inclination: 98.0056°
perigee height: 625 km
apogee height: 628 km
right ascension of ascending node: 207.3593°
argument of perigee: 92.8120°
revolutions per day: 14.80904715
mean anomaly at epoch: 267.3285°
orbit number at epoch: 57763

The dashed part of the orbit path shows where the satellite is in the earth's shadow,  

DLR